Flag for Norway Weather past 2 weeks in Stange, Norway

Now
44 °F

Quite cool.


Feels Like: 41 °F
Forecast: 39 / 56 °F
Wind: 5 mph from Northwest

Location: Haugedalshogda

Current Time: May 26, 2015 at 10:57:41 AM

Latest Report: May 26, 2015 at 10:00 AM


Visibility: N/A

Pressure: 29.80 "Hg

Humidity: 87%

Dew point: 40 °F

Location of StangeLocation

Historic Weather in Stange — Graph

°F

Stange temperature yesterday

Maximum temperature yesterday: 56 °F (at 5:00 PM)
Minimum temperature yesterday: 44 °F (at 4:00 AM)
Average temperature yesterday: 48 °F

Past Weeks' High & Low Weather Summary

 TemperatureHumidityPressure
High60 °F (May 21, 3:00 PM)96% (May 13, 4:00 AM)30.06 "Hg (May 13, 4:00 AM)
Low22 °F (May 16, 4:00 AM)23% (May 15, 5:00 PM)29.50 "Hg (May 12, 8:00 PM)
Average44 °F71%29.80 "Hg
* Reported May 11 9:00 AM — May 26 9:00 AM, Stange, Weather by CustomWeather, © 2015

Note: Actual official high and low records may vary slightly from our data, if they occured in-between our weather recording intervals... More about our weather records

Advertising

Stange weather history for previous 24 hours

 ConditionsComfort  
Time TempWeatherWind HumidityBarometerVisibility
9:00 AM
Tue, May 26
42 °FQuite cool.5 mph88%29.80 "HgN/A
8:00 AM42 °FQuite cool.7 mph88%29.80 "HgN/A
7:00 AM42 °FQuite cool.5 mph90%29.79 "HgN/A
6:00 AM42 °FQuite cool.3 mph92%29.80 "HgN/A
4:00 AM42 °FQuite cool.3 mph92%29.79 "HgN/A
3:00 AM42 °FQuite cool.3 mph92%29.80 "HgN/A
2:00 AM42 °FQuite cool.3 mph91%29.80 "HgN/A
1:00 AM43 °FQuite cool.3 mph91%29.80 "HgN/A
12:00 AM43 °FQuite cool.3 mph87%29.80 "HgN/A
11:00 PM
Mon, May 25
45 °FCool.3 mph82%29.79 "HgN/A
10:00 PM46 °FCool.2 mph85%29.78 "HgN/A
9:00 PM48 °FCool.2 mph73%29.76 "HgN/A
8:00 PM51 °FCool.6 mph64%29.73 "HgN/A
7:00 PM50 °FCool.3 mph74%29.72 "HgN/A
6:00 PM54 °FCool.5 mph57%29.70 "HgN/A
5:00 PM56 °FRefreshingly cool.5 mph48%29.69 "HgN/A
4:00 PM55 °FRefreshingly cool.5 mph50%29.70 "HgN/A
3:00 PM54 °FCool.2 mph57%29.70 "HgN/A
2:00 PM51 °FCool.7 mph62%29.71 "HgN/A
1:00 PM49 °FCool.5 mph68%29.72 "HgN/A
12:00 PM49 °FCool.6 mph75%29.71 "HgN/A
11:00 AM49 °FCool.3 mph81%29.70 "HgN/A
10:00 AM47 °FCool.3 mph82%29.70 "HgN/A
Weather by CustomWeather, © 2015

See weather overviewHow to use our weather pages